Theta_e
312 316 317 316 316 312 314 315 315 314 313 315 317 317 317 317 316 315 316 317 317 316 315 313 311 310 310 311 311 311 311 312 314 315 314 314 316 315 325 325 325 325 326 328
314 316 316 313 312 314 314 316 316 315 312 314 316 317 316 316 316 317 317 317 317 317 317 314 311 309 308 309 310 310 311 312 313 314 314 315 316 315 322 323 324 324 327 329
315 314 312 313 312 314 315 316 316 315 313 313 314 316 317 316 314 315 315 316 316 317 317 316 312 309 309 308 309 309 310 311 312 313 313 310 311 316 318 321 323 325 326 328
314 312 312 313 314 314 316 314 313 314 316 316 313 314 316 316 316 315 316 317 317 316 315 314 314 310 309 309 309 309 309 310 311 312 312 310 313 314 317 317 321 323 325 324
315 314 313 315 315 313 315 312 313 314 317 317 316 316 316 313 315 316 317 317 317 317 316 314 313 311 310 308 308 308 309 309 311 312 311 312 313 315 314 315 316 319 320 321
312 310 313 315 311 312 312 314 315 315 317 319 316 316 315 315 315 315 315 316 316 315 313 312 310 308 307 307 306 307 308 309 310 311 310 311 313 312 311 312 312 314 317 318
313 313 311 311 314 312 314 317 316 318 321 318 313 316 315 315 315 314 315 316 315 312 313 313 312 310 306 305 305 306 307 308 308 310 310 311 312 310 310 311 311 308 308 313
314 314 314 312 315 316 315 316 316 320 317 315 312 317 317 315 314 313 313 314 313 312 312 312 312 310 307 304 305 305 306 307 307 308 309 310 310 310 309 311 310 308 308 312
313 313 310 309 311 314 314 316 315 315 309 316 313 314 314 313 312 312 313 313 314 314 313 313 312 309 307 305 305 305 306 306 307 306 307 308 308 307 307 309 310 310 311 310
311 312 310 310 311 311 313 313 316 315 325 320 314 315 316 317 317 316 314 314 314 313 311 312 311 307 305 304 304 304 305 306 306 305 306 307 306 305 307 308 309 308 310 309
313 313 312 311 313 314 313 314 314 315 316 321 318 315 315 316 316 315 315 313 313 313 312 311 309 305 303 302 303 304 304 305 305 304 304 305 305 304 305 306 309 308 308 308
313 314 315 313 310 308 311 314 315 317 318 315 316 318 311 314 315 314 314 313 312 311 310 309 307 305 303 303 303 303 304 304 305 303 303 303 303 303 302 304 307 308 307 306
314 316 321 319 313 310 312 312 314 314 314 322 322 319 313 312 313 313 314 313 312 311 312 311 309 308 306 304 303 303 303 304 304 303 302 302 302 302 301 302 305 304 304 303
313 316 319 321 319 315 314 313 313 315 318 318 318 317 316 315 315 315 314 313 314 313 311 311 311 311 307 304 303 302 302 302 303 302 301 301 300 300 300 299 302 303 302 301
313 318 318 318 317 313 315 315 313 314 316 318 318 317 316 316 316 315 314 314 314 314 313 314 311 311 309 305 303 301 302 301 302 300 300 300 299 299 299 297 299 300 300 299
313 317 317 318 318 318 320 318 317 315 315 316 316 317 316 316 316 313 312 312 313 314 314 314 312 309 307 307 305 302 301 300 300 300 299 299 298 296 296 296 297 297 296 295
315 314 314 320 318 317 319 318 318 317 316 317 317 317 317 317 315 314 314 314 312 313 313 313 312 311 308 307 305 302 301 300 298 298 298 297 296 295 295 294 294 294 293 291
315 315 315 317 315 317 318 316 316 317 317 317 316 316 316 316 316 315 315 315 314 314 313 311 311 310 309 305 303 301 299 298 297 296 296 295 294 293 293 292 291 290 289 289
310 315 315 317 317 315 316 315 316 317 318 316 316 316 315 315 314 315 314 314 313 313 312 310 306 304 304 302 301 299 297 295 294 294 294 293 293 292 291 290 289 288 288 286
308 312 314 315 317 316 313 312 312 313 318 316 316 316 316 315 317 317 313 306 305 302 300 300 298 298 298 297 297 296 294 292 292 292 292 292 291 291 290 289 288 287 286 285
310 312 314 314 316 316 314 313 310 316 319 307 312 314 314 316 316 314 303 302 300 299 297 295 294 294 291 292 293 292 291 291 291 291 290 290 289 289 288 287 286 285 284 284
309 314 313 312 313 314 305 308 314 310 306 304 303 305 307 308 307 303 301 300 298 297 295 292 292 290 289 291 292 290 289 288 289 289 288 287 287 287 286 286 284 284 283 283
307 307 309 311 314 307 306 307 307 305 305 306 306 305 301 301 301 300 299 296 294 293 291 289 289 288 287 288 289 288 286 287 287 287 286 286 286 286 285 285 284 283 283 283
302 306 308 307 307 307 306 304 303 304 305 305 304 299 302 301 300 299 295 294 292 289 288 287 288 287 286 286 287 286 286 287 286 285 285 285 285 284 284 284 284 284 284 284
302 301 304 304 304 303 303 303 304 305 305 304 303 298 298 297 297 297 294 291 290 289 288 288 286 285 283 285 286 286 287 287 287 286 285 285 284 285 284 285 285 285 286 286
299 300 301 302 301 302 302 302 299 302 304 303 300 298 292 294 295 292 291 289 289 287 285 283 281 280 280 283 285 287 287 288 287 286 286 286 286 285 284 284 284 285 286 286
Wind_Speed
2 5 10 13 10 0 3 2 5 2 0 3 11 18 18 18 16 17 18 18 17 18 21 19 21 24 25 25 26 27 26 26 23 21 17 17 20 28 31 28 29 31 29 30
4 10 8 5 6 4 4 5 9 3 1 5 10 21 19 20 23 18 20 21 22 22 18 19 19 22 26 28 29 27 29 28 29 23 22 16 18 25 29 29 29 29 30 30
11 2 6 8 7 8 7 10 7 6 1 7 9 15 11 7 14 17 21 23 23 24 21 16 18 22 23 27 30 33 32 30 28 25 20 16 17 22 27 28 31 31 30 32
7 4 5 7 8 10 9 10 4 3 3 5 2 8 18 13 15 14 18 17 19 18 16 16 16 19 26 32 30 30 29 29 28 27 25 26 23 24 32 31 32 29 31 33
5 10 9 7 5 13 2 4 4 1 4 5 7 6 9 2 9 15 17 17 17 14 11 14 15 20 23 21 25 27 28 29 29 31 29 28 25 23 27 29 30 31 32 32
0 2 3 2 3 4 12 6 4 2 2 8 6 8 7 7 5 3 6 10 9 5 7 8 8 7 12 13 19 23 27 29 29 30 31 31 28 25 25 26 28 31 33 34
3 5 3 3 7 4 5 9 3 4 4 9 4 7 11 9 12 7 12 17 5 5 5 6 6 7 9 12 15 18 23 27 28 31 31 31 29 27 27 27 27 26 27 33
12 10 13 10 13 9 12 9 6 6 5 5 2 10 6 9 9 13 17 17 13 11 8 9 9 8 8 10 13 16 20 23 25 28 29 27 26 26 26 32 26 28 29 34
8 8 2 1 2 11 7 10 8 6 2 4 9 18 17 14 16 15 18 9 12 12 10 11 9 7 8 10 14 17 18 19 22 25 26 28 28 29 27 32 32 34 31 31
4 6 1 3 2 1 7 7 4 5 6 8 11 12 14 5 6 7 3 7 8 8 6 9 7 7 7 7 10 13 16 18 21 23 27 29 29 29 33 33 37 33 36 34
9 4 2 3 10 14 6 8 3 3 4 5 5 9 5 8 7 6 4 6 4 6 5 3 3 1 3 5 8 11 15 18 21 22 24 26 28 28 31 35 37 37 38 37
5 2 7 9 1 2 4 11 17 6 6 4 4 13 6 5 3 3 6 5 4 4 3 3 6 5 4 7 9 12 14 18 20 20 22 25 26 27 29 36 40 39 39 37
7 3 3 3 3 2 7 9 14 15 2 10 10 12 2 3 8 11 10 4 4 4 4 2 5 8 9 11 12 14 16 19 18 20 22 25 29 30 31 32 38 39 37 36
8 8 10 14 9 3 8 12 18 17 9 20 17 28 26 12 7 7 5 8 10 9 9 9 8 10 13 12 14 15 18 18 18 21 23 27 29 29 28 28 36 39 37 36
6 13 20 25 22 7 7 8 16 20 25 18 26 25 34 20 19 19 17 18 18 13 16 13 10 11 15 15 16 17 18 18 20 23 24 27 26 26 25 28 36 38 38 38
5 5 9 18 19 18 18 19 20 24 26 22 31 28 34 23 19 13 13 11 14 17 19 20 17 11 12 18 19 18 19 21 21 24 26 22 23 26 30 32 35 36 37 36
7 5 5 13 17 17 13 27 29 25 24 25 22 33 24 25 19 18 20 12 16 18 21 21 18 14 16 18 18 18 20 19 24 27 27 28 28 30 32 32 33 35 35 35
10 7 4 7 9 17 13 18 21 28 28 27 24 27 31 27 20 24 15 15 21 22 21 17 15 19 16 11 13 13 16 19 22 25 25 27 27 28 28 29 30 29 30 33
13 14 10 8 16 15 10 12 16 15 27 24 26 30 30 27 19 27 24 21 22 21 14 11 10 12 11 9 8 8 10 13 15 16 21 23 25 25 26 27 27 27 27 27
20 20 12 11 13 20 18 19 13 5 14 20 16 23 26 22 14 21 6 2 3 1 1 5 8 9 7 6 4 4 5 7 9 12 14 16 19 22 23 23 22 22 22 22
5 8 20 21 18 10 5 10 6 7 5 9 9 18 20 18 17 14 2 2 2 2 3 3 2 3 6 6 3 4 3 4 4 5 8 10 13 16 17 17 18 20 20 20
8 5 9 10 12 20 4 1 10 4 10 8 7 6 8 9 8 3 2 3 3 3 2 3 3 5 6 6 6 8 7 4 5 7 8 9 9 11 13 17 18 19 21 20
13 12 10 6 2 4 5 5 7 2 5 12 10 13 5 8 6 5 4 4 2 3 4 3 6 9 10 9 9 13 8 9 11 11 12 11 11 13 14 17 18 15 17 17
16 4 7 2 4 7 5 11 10 15 14 16 12 11 12 13 8 7 3 4 4 5 9 12 11 11 11 13 15 14 14 13 13 14 13 12 13 12 14 15 17 18 18 15
7 4 2 10 14 16 19 15 15 16 16 15 18 12 13 9 9 7 5 4 6 9 8 11 13 12 11 13 15 14 14 14 15 14 13 11 10 9 10 8 9 9 10 11
12 19 13 15 17 12 20 5 4 9 14 20 16 14 5 8 8 5 5 5 9 11 11 13 13 14 12 12 12 11 10 11 16 16 11 10 11 10 10 10 10 7 7 8
Wind_Direction
46 207 216 214 210 125 125 187 255 207 116 269 256 267 269 272 265 260 258 257 255 250 247 239 225 217 214 214 212 211 210 213 207 206 206 215 218 219 218 215 216 223 223 220
168 225 238 103 149 176 209 245 255 265 234 234 284 280 276 263 260 255 256 253 250 255 246 236 224 215 212 214 215 212 213 210 208 209 211 211 209 214 215 215 217 219 218 214
215 151 157 165 172 196 222 235 244 266 284 241 293 276 258 257 255 259 255 254 258 254 253 242 226 217 215 215 214 213 213 211 210 207 203 204 202 208 211 209 212 209 211 211
234 158 151 170 208 198 234 219 239 251 281 273 278 289 281 273 257 251 260 252 252 253 252 252 240 220 215 219 217 215 213 211 210 204 204 206 205 202 212 211 208 206 211 209
191 181 175 189 191 184 230 124 169 168 258 307 193 249 267 254 265 249 254 256 258 263 262 252 241 233 229 223 216 215 213 212 211 207 208 208 211 211 214 210 206 206 205 205
10 36 207 214 91 172 141 98 74 69 301 262 228 230 252 252 247 289 257 254 263 274 271 263 263 255 242 225 214 213 212 216 213 210 212 211 209 203 197 200 203 205 206 205
167 208 176 168 115 95 203 163 209 232 200 252 33 258 253 262 259 252 283 293 310 316 295 278 262 225 214 214 217 215 210 216 214 213 214 214 215 212 205 201 201 198 201 207
208 228 183 181 213 174 197 206 208 227 220 281 106 244 248 241 266 274 272 272 290 279 255 255 252 233 216 209 209 215 215 217 215 217 219 217 217 216 213 211 206 206 207 211
185 240 210 254 144 177 183 213 245 266 95 295 256 265 266 252 265 242 255 284 284 273 252 241 237 235 237 214 208 212 216 218 215 216 218 216 213 211 209 217 219 220 214 215
200 252 104 160 145 9 210 149 162 209 213 232 251 267 256 281 269 270 280 277 293 302 275 247 234 206 210 226 220 216 218 220 216 215 215 215 214 213 215 219 221 217 220 220
207 218 100 165 208 177 172 210 207 204 222 238 261 251 208 237 249 275 340 307 315 333 343 312 271 256 239 224 225 226 223 217 217 215 216 214 212 212 213 216 221 223 224 222
195 351 232 213 56 321 266 226 195 207 196 244 287 266 169 217 175 252 269 283 295 302 325 332 318 294 243 233 228 230 235 226 222 216 212 216 215 212 212 217 223 225 225 222
152 190 256 264 214 200 222 205 220 230 54 214 221 255 79 264 289 272 263 278 250 271 289 245 246 245 234 231 226 226 229 235 226 220 211 213 214 212 214 215 222 225 223 222
175 166 205 243 267 141 204 207 207 202 216 238 233 252 258 237 260 275 268 263 271 273 250 251 244 247 241 233 239 232 231 227 225 221 215 216 215 216 216 214 219 225 223 223
228 232 219 237 243 210 217 204 206 213 228 231 250 241 259 256 258 259 269 280 289 293 292 284 257 259 252 240 242 242 234 224 221 221 221 221 217 216 214 212 220 224 224 225
329 268 267 256 239 244 255 255 242 224 232 240 247 255 253 265 273 263 248 257 273 275 276 278 277 260 251 250 244 239 236 229 220 222 225 220 215 211 211 214 218 221 223 221
204 183 200 247 259 256 241 233 236 241 236 234 240 248 267 268 269 268 265 262 256 257 268 275 268 260 252 251 250 241 241 229 221 221 225 223 215 214 215 216 217 219 220 220
252 234 221 271 288 261 244 250 238 236 245 243 250 259 258 258 266 271 262 258 268 272 273 265 272 276 274 264 258 253 241 229 224 222 222 224 216 214 212 211 212 212 214 216
232 244 244 237 255 271 287 259 232 229 248 244 239 246 257 265 274 276 261 248 249 260 282 285 282 285 288 290 278 249 227 219 219 219 217 217 216 212 207 205 204 207 208 209
214 219 242 238 247 254 258 266 248 194 246 251 230 240 250 258 254 260 266 201 223 223 328 316 314 310 314 325 299 226 222 218 219 224 227 227 221 217 210 206 198 199 203 202
190 213 228 235 243 247 224 246 156 204 273 325 247 238 249 247 236 274 98 240 286 301 311 311 338 12 356 1 56 93 142 195 218 220 222 214 214 214 212 197 189 185 185 185
247 238 214 226 238 252 19 131 239 319 314 301 292 276 280 280 301 315 219 265 280 281 330 350 82 71 59 71 99 102 95 107 131 147 157 167 175 181 184 182 173 178 176 173
249 238 256 223 283 172 242 236 260 258 262 295 286 284 284 281 265 257 228 197 173 139 120 91 112 87 64 73 113 115 110 120 124 128 129 137 148 160 170 168 162 153 165 159
247 186 241 324 229 242 256 272 258 262 249 264 253 252 261 252 255 268 208 190 151 136 132 129 110 91 82 93 101 101 108 112 116 114 118 133 141 147 156 161 165 162 165 173
292 349 278 276 268 270 266 255 253 268 250 270 273 256 248 233 247 211 187 166 144 133 129 122 116 106 92 96 95 106 116 126 121 120 127 126 125 125 124 129 147 157 178 185
249 251 250 257 269 271 280 248 224 230 250 254 262 255 218 216 209 154 155 143 139 131 127 109 100 104 94 91 93 102 120 139 134 125 124 127 131 131 134 136 126 158 168 183